Location: Krasnoyarskiy Pitomnik
(51.1333°N, 71.6167°E)
Time: 22:01:40
(UTC+00:00)

A-11 Canister half - Pass Details

Date: 25 April 2024
Orbit: 1525 x 1683 km, 47.3° (Epoch: 19 May)

Event Time Altitude Azimuth Distance (km) Brightness Sun altitude
Rises 00:51:36 0° 239° (WSW) 4,855 11.0 7.2°
Reaches altitude 10° 00:54:44 10° 236° (SW) 3,888 10.6 7.7°
Maximum altitude 01:04:29 61° 159° (SSE) 1,869 9.7 9.2°
Drops below altitude 10° 01:14:24 10° 83° (E) 3,950 15.6 10.8°
Sets 01:17:37 0° 81° (E) 4,937 13.9 11.3°
